Ravenna, OH

10:52 PM EDT on July 25, 2017 (GMT -0400)
Ravenna

Weather History for KPOV - December, 2012

Change the Weather History Date:

Saturday, December 1, 2012

  Actual Average (KCAK) Record (KCAK)
Temperature  
Mean Temperature 43 °F -  
Max Temperature 55 °F 42 °F 65 °F (1970)
Min Temperature 31 °F 29 °F 3 °F (1929)
Degree Days  
Heating Degree Days 22    
Moisture  
Dew Point 35 °F    
Average Humidity 72    
Maximum Humidity 99    
Minimum Humidity 52    
Precipitation  
Precipitation 0.00 in - - ()
Sea Level Pressure  
Sea Level Pressure 30.22 in    
Wind  
Wind Speed 3 mph (SSE)    
Max Wind Speed 9 mph    
Max Gust Speed -    
Visibility 10 miles    
Events      
Averages and records for this station are not official NWS values.
T = Trace of Precipitation, MM = Missing Value Source: NWS Daily Summary

Daily Weather History Graph

Daily Weather History Graph

Search for Another Location

Airport or City:

Trip Planner

Search our weather history database for the weather conditions in past years. The results will help you decide how hot, cold, wet, or windy it might be!

Date:

Astronomy

Dec. 01, 2012 Rise Set
Actual Time 7:31 AM EST 4:56 PM EST
Civil Twilight 7:00 AM EST 5:27 PM EST
Nautical Twilight 6:26 AM EST 6:01 PM EST
Astronomical Twilight 5:53 AM EST 6:34 PM EST
Moon 7:45 PM EST (12/1) 9:43 AM EST (12/1)
Length of Visible Light 10h 26m
Length of Day
9h 25m
Waning Gibbous, 92% of the Moon is Illuminated
Dec 1
Waning Gibbous
Dec 6
Last Quarter
Dec 13
New
Dec 20
First Quarter
Dec 28
Full

Hourly Weather History & Observations

Time (EST) Temp. Windchill Dew Point Humidity Pressure Visibility Wind Dir Wind Speed Gust Speed Precip Events Conditions
12:15 AM 35.4 °F 32.6 °F 28.4 °F 76% 30.22 in 10.0 mi East 3.5 mph - N/A   Clear
12:35 AM 33.6 °F 30.6 °F 27.5 °F 78% 30.22 in 10.0 mi ESE 3.5 mph - N/A   Clear
12:55 AM 32.0 °F 28.7 °F 26.8 °F 81% 30.21 in 10.0 mi ESE 3.5 mph - N/A   Clear
1:15 AM 31.3 °F - 27.5 °F 86% 30.21 in 10.0 mi Calm Calm - N/A   Clear
1:35 AM 31.8 °F - 28.0 °F 86% 30.21 in 10.0 mi Calm Calm - N/A   Clear
1:55 AM 32.0 °F - 28.2 °F 86% 30.21 in 10.0 mi Calm Calm - N/A   Scattered Clouds
2:15 AM 31.5 °F 28.1 °F 27.5 °F 85% 30.20 in 10.0 mi SE 3.5 mph - N/A   Scattered Clouds
2:35 AM 31.8 °F - 27.5 °F 84% 30.21 in 10.0 mi Calm Calm - N/A   Clear
2:56 AM 33.6 °F - 29.1 °F 84% 30.22 in 10.0 mi Calm Calm - N/A   Clear
3:15 AM 32.5 °F - 29.1 °F 87% 30.22 in 10.0 mi Calm Calm - N/A   Clear
3:35 AM 32.9 °F - 28.6 °F 84% 30.22 in 10.0 mi Calm Calm - N/A   Clear
3:55 AM 32.2 °F - 28.6 °F 87% 30.23 in 10.0 mi Calm Calm - N/A   Mostly Cloudy
4:35 AM 34.9 °F - 30.0 °F 82% 30.23 in 10.0 mi Calm Calm - N/A   Scattered Clouds
4:55 AM 34.0 °F - 30.2 °F 86% 30.24 in 10.0 mi Calm Calm - N/A   Clear
5:15 AM 32.5 °F - 29.3 °F 88% 30.24 in 10.0 mi Calm Calm - N/A   Clear
5:35 AM 32.0 °F - 29.1 °F 89% 30.25 in 10.0 mi Calm Calm - N/A   Clear
5:56 AM 31.3 °F - 28.4 °F 89% 30.25 in 10.0 mi Calm Calm - N/A   Scattered Clouds
6:15 AM 32.0 °F - 31.3 °F 97% 30.25 in 10.0 mi Calm Calm - N/A   Scattered Clouds
6:35 AM 31.3 °F - 31.1 °F 99% 30.25 in 10.0 mi Calm Calm - N/A   Clear
6:54 AM 31.3 °F 27.9 °F 30.9 °F 99% 30.26 in 10.0 mi South 3.5 mph - N/A   Clear
7:15 AM 33.3 °F 30.2 °F 32.9 °F 99% 30.26 in 7.0 mi South 3.5 mph - N/A   Clear
7:35 AM 35.4 °F 32.6 °F 32.2 °F 88% 30.27 in 10.0 mi South 3.5 mph - N/A   Clear
7:55 AM 35.8 °F - 32.5 °F 88% 30.27 in 10.0 mi Calm Calm - N/A   Clear
8:15 AM 34.9 °F - 32.7 °F 92% 30.26 in 10.0 mi Calm Calm - N/A   Clear
8:35 AM 37.9 °F - 32.7 °F 81% 30.27 in 10.0 mi Calm Calm - N/A   Clear
8:55 AM 40.6 °F 38.6 °F 33.4 °F 75% 30.27 in 10.0 mi South 3.5 mph - N/A   Clear
9:15 AM 42.3 °F - 34.3 °F 74% 30.27 in 10.0 mi Calm Calm - N/A   Clear
9:35 AM 44.1 °F - 34.9 °F 70% 30.27 in 10.0 mi Calm Calm - N/A   Clear
9:55 AM 45.3 °F 44.0 °F 35.4 °F 68% 30.28 in 10.0 mi SSW 3.5 mph - N/A   Mostly Cloudy
10:15 AM 46.9 °F - 36.3 °F 67% 30.27 in 10.0 mi SSE 3.5 mph - N/A   Overcast
10:35 AM 47.5 °F - 36.9 °F 67% 30.27 in 10.0 mi Calm Calm - N/A   Overcast
10:55 AM 48.7 °F - 37.2 °F 64% 30.26 in 10.0 mi South 3.5 mph - N/A   Overcast
11:15 AM 49.6 °F - 37.4 °F 63% 30.26 in 10.0 mi SSW 4.6 mph - N/A   Mostly Cloudy
11:35 AM 50.0 °F - 37.4 °F 62% 30.26 in 10.0 mi SSE 4.6 mph - N/A   Overcast
11:55 AM 49.6 °F - 37.4 °F 63% 30.24 in 10.0 mi Calm Calm - N/A   Overcast
12:15 PM 50.2 °F - 37.4 °F 62% 30.23 in 10.0 mi South 4.6 mph - N/A   Overcast
12:35 PM 50.5 °F - 37.6 °F 61% 30.23 in 10.0 mi South 5.8 mph - N/A   Overcast
12:55 PM 51.4 °F - 37.4 °F 59% 30.22 in 10.0 mi South 4.6 mph - N/A   Overcast
1:15 PM 53.4 °F - 37.9 °F 56% 30.22 in 10.0 mi South 8.1 mph - N/A   Mostly Cloudy
1:35 PM 53.8 °F - 38.3 °F 56% 30.22 in 10.0 mi SSW 6.9 mph - N/A   Overcast
1:56 PM 54.0 °F - 38.1 °F 55% 30.21 in 10.0 mi South 5.8 mph - N/A   Overcast
2:15 PM 55.2 °F - 37.9 °F 52% 30.21 in 10.0 mi SSW 9.2 mph - N/A   Mostly Cloudy
2:35 PM 54.5 °F - 38.3 °F 54% 30.21 in 10.0 mi SW 3.5 mph - N/A   Mostly Cloudy
2:55 PM 55.0 °F - 38.3 °F 53% 30.20 in 10.0 mi South 6.9 mph - N/A   Overcast
3:15 PM 55.2 °F - 38.5 °F 53% 30.20 in 10.0 mi South 8.1 mph - N/A   Overcast
3:35 PM 54.9 °F - 38.8 °F 55% 30.20 in 10.0 mi South 5.8 mph - N/A   Overcast
3:55 PM 55.0 °F - 39.2 °F 55% 30.20 in 10.0 mi SSE 4.6 mph - N/A   Mostly Cloudy
4:15 PM 54.5 °F - 39.6 °F 57% 30.19 in 10.0 mi South 4.6 mph - N/A   Scattered Clouds
4:35 PM 53.8 °F - 39.4 °F 58% 30.19 in 10.0 mi Calm Calm - N/A   Clear
4:56 PM 52.7 °F - 39.7 °F 61% 30.19 in 10.0 mi Calm Calm - N/A   Clear
5:15 PM 52.5 °F - 40.1 °F 63% 30.19 in 10.0 mi South 3.5 mph - N/A   Clear
5:35 PM 51.8 °F - 40.1 °F 64% 30.20 in 10.0 mi SSE 3.5 mph - N/A   Clear
5:55 PM 51.3 °F - 40.1 °F 66% 30.20 in 10.0 mi SSE 3.5 mph - N/A   Clear
6:15 PM 50.5 °F - 40.1 °F 67% 30.20 in 10.0 mi South 3.5 mph - N/A   Clear
6:55 PM 50.7 °F - 40.1 °F 67% 30.19 in 10.0 mi SSE 3.5 mph - N/A   Clear
7:15 PM 51.3 °F - 39.9 °F 65% 30.20 in 10.0 mi South 4.6 mph - N/A   Clear
7:35 PM 51.3 °F - 39.7 °F 65% 30.20 in 10.0 mi South 4.6 mph - N/A   Clear
7:55 PM 50.9 °F - 39.6 °F 65% 30.20 in 10.0 mi South 4.6 mph - N/A   Clear
8:15 PM 50.5 °F - 39.6 °F 66% 30.19 in 10.0 mi SSE 3.5 mph - N/A   Clear
8:35 PM 50.0 °F - 39.4 °F 67% 30.19 in 10.0 mi SSE 4.6 mph - N/A   Scattered Clouds
8:55 PM 49.5 °F - 39.4 °F 68% 30.19 in 10.0 mi SSE 4.6 mph - N/A   Scattered Clouds
9:15 PM 49.3 °F - 39.4 °F 69% 30.18 in 10.0 mi SSE 4.6 mph - N/A   Clear
9:35 PM 49.1 °F - 39.4 °F 69% 30.18 in 10.0 mi SSE 4.6 mph - N/A   Clear
9:55 PM 48.7 °F - 39.4 °F 70% 30.17 in 10.0 mi Calm Calm - N/A   Clear
10:15 PM 48.9 °F - 39.4 °F 70% 30.17 in 10.0 mi South 4.6 mph - N/A   Clear
10:35 PM 49.1 °F - 39.4 °F 69% 30.17 in 10.0 mi SSE 4.6 mph - N/A   Clear
10:55 PM 48.9 °F - 39.2 °F 69% 30.17 in 10.0 mi SSE 4.6 mph - N/A   Clear
11:15 PM 48.7 °F - 39.2 °F 70% 30.16 in 10.0 mi SSE 4.6 mph - N/A   Clear
11:35 PM 49.3 °F - 39.4 °F 69% 30.16 in 10.0 mi SSE 5.8 mph - N/A   Clear
11:56 PM 49.8 °F - 39.4 °F 67% 30.17 in 10.0 mi South 4.6 mph - N/A   Clear